Back to catalog

STARLINK-2435

AliveCommunicationsVLEO
NORAD 47843·PAYLOAD·🇺🇸 United States

Launched Mar 11, 2021 from Cape Canaveral Space Force Station

Loading…

Next Passes (next 24 hours)

TLE

FreshSource: CelesTrak SupGP

Epoch: Sep 14, 2026, 12:48 UTC

1 47843C 21018BJ  26257.53381944  .00027895  00000+0  89717-3 0  2579
2 47843  53.1575  96.4592 0001219  91.9952 106.3143 15.31683125    11

Track STARLINK-2435 in real time with AllMySat

Download on the App Store